Location: Recife
(8.0585°S, 34.8848°W)
Time: 13:10:56
(UTC-03:00)

Tiros 1 - Pass Details

Date: 21 April 2026
Orbit: 618 x 648 km, 48.4° (Epoch: 11 May)

Event Time Altitude Azimuth Distance (km) Brightness Sun altitude
Rises 16:25:11 0° 342° (NNW) 2,928 11.0 11.1°
Reaches altitude 10° 16:27:46 10° 353° (N) 2,027 10.0 10.5°
Maximum altitude 16:31:46 28° 52° (NE) 1,213 8.3 9.5°
Drops below altitude 10° 16:35:47 10° 111° (ESE) 2,045 9.1 8.6°
Sets 16:38:23 0° 122° (ESE) 2,959 9.9 7.9°
